Welcome to the New NWS' Forecast!
Most changes are behind the scenes, but click here for differences you might notice.

Regional Weather Roundup (RWR)

Issued by Huntsville, AL (HUN)

                            
051 
ASUS44 KHUN 201210
RWRHUN
       
WEATHER ROUNDUP FOR THE TENNESSEE VALLEY
NATIONAL WEATHER SERVICE HUNTSVILLE AL
700 AM CDT MON AUG 20 2018

ALZ001>004-201300-
NORTHWEST ALABAMA
  
CITY           SKY/WX    TMP DP  RH WIND       PRES   REMARKS
COURTLAND HCN    N/A     73 N/A N/A S5          N/A                   
RUSSELLVILLE     N/A     72 N/A N/A MISG        N/A                   
SHOALS AIRPORT CLOUDY    74  72  93 S5        30.00R                  
6HR MIN TEMP:  74; 6HR MAX TEMP:  76; 6HR PCP:  0.02;                

SHOALS TVA RES   N/A     73 N/A N/A MISG        N/A                   
$$

ALZ005>007-016-201300-
NORTH CENTRAL ALABAMA
  
CITY           SKY/WX    TMP DP  RH WIND       PRES   REMARKS
CULLMAN AG STN   N/A     73 N/A N/A SW5         N/A                   
DECATUR AP     CLOUDY    74  72  93 S7        30.02R                  
6HR MIN TEMP:  74; 6HR MAX TEMP:  75; 6HR PCP: TRACE;                

HUNTSVILLE AP  CLOUDY    75  73  93 S3        30.01R                  
6HR MIN TEMP:  74; 6HR MAX TEMP:  75;                                

MERIDIANVILLE  CLOUDY    75  71  87 S8        30.02R                  
REDSTONE ARSN  CLOUDY    74  71  92 S6        30.01R                  
VINEMONT AP    CLOUDY    72  70  93 S6        30.05S                  
$$
 
ALZ008>010-201300-
NORTHEAST ALABAMA
  
CITY           SKY/WX    TMP DP  RH WIND       PRES   REMARKS
ALBERTVILLE    CLOUDY    72  72 100 SW6       30.04R                  
FORT PAYNE     CLOUDY    72  70  94 SW3       30.03F                  
SCOTTSBORO AP  CLOUDY    75  75 100 SW6G12    30.03R                  
SCOTTSBORO HCN   N/A     73 N/A N/A MISG        N/A                   
VALLEY HEAD      N/A     72 N/A N/A MISG        N/A                   
$$

TNZ076-096-097-201300-
SOUTHEASTERN MIDDLE TENNESSEE
  
CITY           SKY/WX    TMP DP  RH WIND       PRES   REMARKS
TULLAHOMA      CLOUDY    72  70  94 SW6G12    30.02R                  
WINCHESTER     CLOUDY    73  70  88 S8        30.01S                  
$$
 
...SURROUNDING SITES...
  
CITY           SKY/WX    TMP DP  RH WIND       PRES   REMARKS
ATLANTA        CLOUDY    73  69  87 SW9       30.08R                  
ANNISTON       CLOUDY    74  71  91 CALM      30.05R                  
BIRMINGHAM     CLOUDY    75  72  90 SW7       30.06R                  
CHATTANOOGA    CLOUDY    75  71  87 S6        30.03R FOG              
CORINTH          N/A     75  72  88 S7        29.93F                  
DALTON         CLOUDY    72  72 100 CALM      30.06R                  
GADSDEN        CLOUDY    74  74 100 CALM      30.04                   
GOLDEN TRNGL   CLOUDY    74  73  97 S9        29.99S                  
HALEYVILLE     CLOUDY    72  71  97 S8        30.03R FOG              
JACKSON TN     FAIR      74  72  93 S6        29.91R                  
LAWRENCEBURG   CLOUDY    72  72 100 S5G12     30.00R FOG              
MEMPHIS        LGT RAIN  72  71  97 SW8       29.92R                  
NASHVILLE      LGT RAIN  75  72  90 S7        29.97R FOG              
OXFORD MS      MOCLDY    73  72  94 SW7       29.97R                  
ROME           CLOUDY    74  70  87 S3        30.04R                  
SAVANNAH       CLOUDY    75  73  94 S8        29.94S                  
SELMER         MOCLDY    75  72  88 VRB6      29.93S                  
TUPELO         CLOUDY    74  72  93 SE8       29.97  FOG              
TUSCALOOSA     CLOUDY    76  73  91 S5        30.02R                  
$$

...GULF COAST WEATHER...
  
CITY           SKY/WX    TMP DP  RH WIND       PRES   REMARKS
GULFPORT       FAIR      83  77  82 SW5       30.02R HX  92           
PASCAGOULA     FAIR      77  74  90 CALM      30.03R                  
MOBILE         MOCLDY    78  76  93 S5        30.05R                  
GULF SHORES    FAIR      74  74 100 CALM      30.04R                  
PENSACOLA      MOCLDY    78  76  93 CALM      30.03                   
DESTIN         FAIR      83  74  74 CALM      30.04R                  
PANAMA CITY    HVY RAIN  79  75  89 S9        30.07R                  
APPALACHICOLA  FAIR      77  77 100 CALM      30.06R                  
$$